When you browse on this site, cookies collect data to enhance your experience and personalize the content and advertising you see.
Visit our Privacy Policy to learn more. By continuing to use the site, you agree to this use of cookies and data.
  • In France
  • List of Countries
  • For 7 days
  • Water Temperature
  • Satellite Maps
  • Weather Map
  • Weather Widgets
  • user-avatar
    Login

    Hourly Weather Mayrhofen

    Today, 18 April, Thursday

    Time Temperature Precipitation Wind Pressure Humidity
    00:00 -2°C° 0 mm 2 mps 619 mmHg 82%
    01:00 -1°C° 0 mm 3 mps 619 mmHg 80%
    02:00 -1°C° 0 mm 3 mps 619 mmHg 82%
    03:00 -2°C° 0 mm 3 mps 619 mmHg 84%
    04:00 -2°C° 0 mm 2 mps 619 mmHg 86%
    05:00 -1°C° 0 mm 2 mps 619 mmHg 85%
    06:00 +1°C° 0 mm 2 mps 619 mmHg 84%
    07:00 +2°C° 0 mm 2 mps 620 mmHg 82%
    08:00 +4°C° 0 mm 2 mps 620 mmHg 76%
    09:00 +6°C° 0 mm 2 mps 621 mmHg 69%
    10:00 +9°C° 0 mm 1 mps 622 mmHg 63%
    11:00 +9°C° 0 mm 1 mps 622 mmHg 60%
    12:00 +10°C° 0 mm 1 mps 622 mmHg 57%
    13:00 +10°C° 0 mm 2 mps 623 mmHg 55%
    14:00 +10°C° 0.1 mm 2 mps 622 mmHg 55%
    15:00 +9°C° 0.1 mm 2 mps 622 mmHg 56%
    16:00 +9°C° 0.1 mm 2 mps 622 mmHg 57%
    17:00 +7°C° 0.1 mm 2 mps 622 mmHg 64%
    18:00 +5°C° 0.1 mm 2 mps 621 mmHg 72%
    19:00 +3°C° 0.1 mm 2 mps 621 mmHg 79%
    20:00 +2°C° 0 mm 2 mps 621 mmHg 83%
    21:00 +2°C° 0 mm 2 mps 621 mmHg 86%
    22:00 0°C° 0 mm 3 mps 621 mmHg 89%
    23:00 -1°C° 0 mm 3 mps 621 mmHg 90%

    Tomorrow, 19 April, Friday

    Time Temperature Precipitation Wind Pressure Humidity
    00:00 -1°C° 0 mm 3 mps 622 mmHg 91%
    01:00 -1°C° 0 mm 3 mps 622 mmHg 92%
    02:00 -1°C° 0 mm 3 mps 622 mmHg 91%
    03:00 -1°C° 0 mm 3 mps 622 mmHg 90%
    04:00 -2°C° 0 mm 3 mps 622 mmHg 90%
    05:00 -1°C° 0 mm 2 mps 622 mmHg 86%
    06:00 +1°C° 0 mm 2 mps 623 mmHg 82%
    07:00 +2°C° 0 mm 2 mps 623 mmHg 78%
    08:00 +4°C° 0 mm 2 mps 624 mmHg 70%
    09:00 +6°C° 0 mm 2 mps 625 mmHg 62%
    10:00 +8°C° 0 mm 2 mps 625 mmHg 53%
    11:00 +9°C° 0 mm 2 mps 626 mmHg 48%
    12:00 +12°C° 0 mm 2 mps 626 mmHg 43%
    13:00 +13°C° 0 mm 2 mps 626 mmHg 37%
    14:00 +12°C° 0 mm 2 mps 626 mmHg 38%
    15:00 +12°C° 0 mm 2 mps 626 mmHg 38%
    16:00 +12°C° 0 mm 2 mps 625 mmHg 38%
    17:00 +10°C° 0 mm 1 mps 624 mmHg 47%
    18:00 +7°C° 0 mm 1 mps 623 mmHg 57%
    19:00 +5°C° 0 mm 1 mps 622 mmHg 66%
    20:00 +4°C° 0 mm 1 mps 623 mmHg 68%
    21:00 +2°C° 0 mm 2 mps 623 mmHg 69%
    22:00 +1°C° 0 mm 2 mps 623 mmHg 71%
    23:00 +1°C° 0 mm 2 mps 623 mmHg 72%

    Day after tomorrow, 20 April, Saturday

    Time Temperature Precipitation Wind Pressure Humidity
    00:00 +1°C° 0 mm 2 mps 623 mmHg 73%
    01:00 +1°C° 0 mm 2 mps 623 mmHg 75%
    02:00 -1°C° 0 mm 2 mps 623 mmHg 76%
    03:00 -1°C° 0 mm 2 mps 623 mmHg 76%
    04:00 -1°C° 0 mm 2 mps 622 mmHg 77%
    05:00 +1°C° 0 mm 2 mps 623 mmHg 73%
    06:00 +2°C° 0 mm 2 mps 623 mmHg 69%
    07:00 +3°C° 0 mm 2 mps 623 mmHg 65%
    08:00 +6°C° 0 mm 2 mps 624 mmHg 56%
    09:00 +8°C° 0 mm 2 mps 624 mmHg 47%
    10:00 +11°C° 0 mm 1 mps 625 mmHg 37%
    11:00 +12°C° 0 mm 1 mps 625 mmHg 35%
    12:00 +13°C° 0 mm 2 mps 625 mmHg 33%
    13:00 +14°C° 0 mm 2 mps 625 mmHg 31%
    14:00 +14°C° 0 mm 2 mps 625 mmHg 32%
    15:00 +14°C° 0 mm 2 mps 625 mmHg 32%
    16:00 +14°C° 0 mm 2 mps 624 mmHg 33%
    17:00 +11°C° 0 mm 1 mps 623 mmHg 43%
    18:00 +8°C° 0 mm 1 mps 622 mmHg 54%
    19:00 +6°C° 0 mm 1 mps 621 mmHg 64%
    20:00 +5°C° 0 mm 1 mps 621 mmHg 64%
    21:00 +3°C° 0 mm 2 mps 621 mmHg 63%
    22:00 +3°C° 0 mm 2 mps 621 mmHg 63%
    23:00 +2°C° 0 mm 2 mps 621 mmHg 63%

    21 April, Sunday

    Time Temperature Precipitation Wind Pressure Humidity
    00:00 +2°C° 0 mm 2 mps 620 mmHg 64%
    01:00 +1°C° 0 mm 2 mps 620 mmHg 65%
    02:00 +1°C° 0 mm 2 mps 620 mmHg 68%
    03:00 +1°C° 0 mm 2 mps 619 mmHg 72%
    04:00 +1°C° 0 mm 2 mps 619 mmHg 75%
    05:00 +2°C° 0 mm 2 mps 619 mmHg 72%
    06:00 +3°C° 0 mm 2 mps 619 mmHg 69%
    07:00 +4°C° 0 mm 2 mps 620 mmHg 65%
    08:00 +6°C° 0 mm 2 mps 620 mmHg 54%
    09:00 +9°C° 0 mm 2 mps 621 mmHg 43%
    10:00 +12°C° 0 mm 1 mps 621 mmHg 31%
    11:00 +13°C° 0 mm 2 mps 621 mmHg 29%
    12:00 +13°C° 0 mm 2 mps 621 mmHg 26%
    13:00 +14°C° 0 mm 2 mps 621 mmHg 23%
    14:00 +14°C° 0 mm 2 mps 620 mmHg 24%
    15:00 +14°C° 0 mm 2 mps 620 mmHg 25%
    16:00 +14°C° 0 mm 2 mps 619 mmHg 26%
    17:00 +10°C° 0 mm 2 mps 618 mmHg 34%
    18:00 +8°C° 0 mm 2 mps 617 mmHg 43%
    19:00 +6°C° 0 mm 2 mps 616 mmHg 52%
    20:00 +4°C° 0 mm 2 mps 616 mmHg 57%
    21:00 +2°C° 0 mm 3 mps 616 mmHg 63%
    22:00 +1°C° 0 mm 3 mps 616 mmHg 68%
    23:00 +1°C° 0 mm 3 mps 616 mmHg 74%

    22 April, Monday

    Time Temperature Precipitation Wind Pressure Humidity
    00:00 +1°C° 0 mm 3 mps 616 mmHg 80%
    01:00 +1°C° 0 mm 3 mps 615 mmHg 86%
    02:00 +1°C° 0 mm 3 mps 615 mmHg 86%
    03:00 +1°C° 0 mm 3 mps 615 mmHg 87%
    04:00 +1°C° 0 mm 3 mps 615 mmHg 88%
    05:00 +1°C° 0 mm 3 mps 615 mmHg 82%
    06:00 +2°C° 0 mm 3 mps 615 mmHg 77%
    07:00 +2°C° 0 mm 3 mps 614 mmHg 72%
    08:00 +4°C° 0 mm 3 mps 615 mmHg 59%
    09:00 +7°C° 0 mm 3 mps 615 mmHg 47%
    10:00 +10°C° 0 mm 3 mps 616 mmHg 35%
    11:00 +10°C° 0 mm 3 mps 616 mmHg 34%
    12:00 +11°C° 0 mm 3 mps 616 mmHg 33%
    13:00 +12°C° 0 mm 3 mps 616 mmHg 32%
    14:00 +12°C° 0 mm 4 mps 615 mmHg 36%
    15:00 +12°C° 0 mm 4 mps 614 mmHg 39%
    16:00 +11°C° 0 mm 4 mps 614 mmHg 42%
    17:00 +8°C° 0 mm 4 mps 613 mmHg 51%
    18:00 +8°C° 0 mm 3 mps 612 mmHg 61%
    19:00 +5°C° 0 mm 3 mps 611 mmHg 70%
    20:00 +4°C° 0 mm 3 mps 611 mmHg 75%
    21:00 +3°C° 0 mm 3 mps 611 mmHg 81%
    22:00 +1°C° 0 mm 4 mps 610 mmHg 86%
    23:00 +2°C° 0 mm 3 mps 610 mmHg 86%

    23 April, Tuesday

    Time Temperature Precipitation Wind Pressure Humidity
    00:00 +2°C° 0 mm 3 mps 610 mmHg 86%
    01:00 +2°C° 0 mm 3 mps 609 mmHg 86%
    02:00 +2°C° 0.1 mm 3 mps 609 mmHg 85%
    03:00 +2°C° 0.1 mm 3 mps 609 mmHg 84%
    04:00 +2°C° 0.1 mm 3 mps 608 mmHg 84%
    05:00 +2°C° 0.1 mm 3 mps 608 mmHg 81%
    06:00 +3°C° 0.1 mm 3 mps 609 mmHg 79%
    07:00 +4°C° 0.1 mm 3 mps 609 mmHg 77%
    08:00 +5°C° 0.1 mm 3 mps 609 mmHg 71%
    09:00 +8°C° 0.1 mm 3 mps 610 mmHg 65%
    10:00 +9°C° 0.1 mm 3 mps 610 mmHg 59%
    11:00 +10°C° 0 mm 3 mps 610 mmHg 56%
    12:00 +10°C° 0 mm 3 mps 611 mmHg 54%
    13:00 +11°C° 0 mm 3 mps 611 mmHg 52%
    14:00 +11°C° 0 mm 3 mps 611 mmHg 51%
    15:00 +12°C° 0 mm 2 mps 611 mmHg 51%
    16:00 +13°C° 0 mm 2 mps 611 mmHg 51%
    17:00 +10°C° 0.1 mm 2 mps 611 mmHg 59%
    18:00 +9°C° 0.1 mm 2 mps 610 mmHg 67%
    19:00 +7°C° 0.1 mm 2 mps 610 mmHg 75%
    20:00 +6°C° 0 mm 2 mps 610 mmHg 79%
    21:00 +4°C° 0 mm 3 mps 610 mmHg 83%
    22:00 +3°C° 0 mm 3 mps 610 mmHg 87%
    23:00 +2°C° 0 mm 3 mps 611 mmHg 88%
    Show more